Regional Weather Roundup
Issued by NWS

Home | Current Version | Previous Version | Graphics & Text | Print | Product List | Glossary On
Versions: 1 2 3 4 5 6 7 8 9 10 11 12 13 14 15 16 17 18 19 20 21 22 23 24 25 26 27 28 29 30 31 32 33 34 35 36 37 38 39 40 41 42 43 44 45 46 47 48 49 50
000
ASUS44 KMEG 260900
RWRTN
TENNESSEE HOURLY STATE WEATHER ROUNDUP
NATIONAL WEATHER SERVICE MEMPHIS TN
400 AM CDT THU MAY 26 2016

TNZ002-004-019-021-049-052-054-088>092-261000-
WEST TENNESSEE

CITY           SKY/WX    TMP DP  RH WIND       PRES   REMARKS
MEMPHIS INTL   MOCLDY    73  65  75 S7        30.03S
NWS MEMPHIS      N/A     68 N/A N/A MISG        N/A
JACKSON        PTCLDY    69  62  78 S8        30.05F
DYERSBURG      CLEAR     64  61  88 SE5       30.03S
UNION CITY     PTCLDY    64  64 100 S7        30.02F
PARIS          CLOUDY    66  61  82 S9        30.06S
LEXINGTON      CLEAR     63  63 100 CALM      30.07S
$$

TNZ008-025-027-028-033-062-065-066-261000-
NORTH MIDDLE TENNESSEE

CITY           SKY/WX    TMP DP  RH WIND       PRES   REMARKS
NASHVILLE      CLOUDY    65  62  90 S5        30.11S
CLARKSVILLE    MOCLDY    63  61  93 S5        30.07S
COOKEVILLE     PTCLDY    64  64 100 SE5       30.13S
CROSSVILLE     CLOUDY    65  60  84 CALM      30.19S
$$

TNZ061-075-076-078-094-096-097-261000-
SOUTH MIDDLE TENNESSEE

CITY           SKY/WX    TMP DP  RH WIND       PRES   REMARKS
TULLAHOMA      PTCLDY    64  63  94 CALM      30.15S
WINCHESTER     PTCLDY    64  59  82 CALM      30.15R
COLUMBIA       MOCLDY    70  70 100 SW5       30.09S
SHELBYVILLE    PTCLDY    66  63  88 E5        30.14R
$$

TNZ017-018-042-046-047-261000-
NORTHEAST TENNESSEE

CITY           SKY/WX    TMP DP  RH WIND       PRES   REMARKS
TRI CITIES     CLOUDY    65  63  93 CALM      30.17S
$$

TNZ012-013-036-069-073-074-261000-
CENTRAL EAST TENNESSEE

CITY           SKY/WX    TMP DP  RH WIND       PRES   REMARKS
KNOXVILLE      PTCLDY    66  59  78 NW3       30.14R
OAK RIDGE      CLOUDY    67  60  78 CALM      30.16R
GATLINBURG     CLOUDY    63  57  82 CALM      30.15R
$$

TNZ083-085-099-261000-
SOUTHEAST TENNESSEE

CITY           SKY/WX    TMP DP  RH WIND       PRES   REMARKS
CHATTANOOGA    CLOUDY    69  60  73 NW5       30.15R
$$

SKY/WX REPORTED AS FAIR MEANS FEW OR NO CLOUDS BELOW
12 THOUSAND FEET.





USA.gov is the U.S. government's official web portal to all federal, state and local government web resources and services.